x

8454000 - Providence, Ri (foxr1) Weather Station

8:54 - Sat 25th Mar 2017 All times are EDT. -4 hours from GMT.

  • Wind
    3mph, 7mph gusts
  • Sea Temp 38°f
  • Ar Temp 43°f
  • Sea Pressure 1020.6mb
  • 8454000 - Providence, Ri
  • 8454000 - Providence, Ri

More Historic Weather Station data

Upgrade to MSW Pro to gain access to the past 30 days of data for over 8000 Wavebouys and Weather Stations around the globe.

Join Pro

Comparision Forecast

View Surf forecast
   
Sáb 03/25 8:54 3 7 mph 1020.6mb 38f 43f
8:48 3 7 mph 1020.7mb 38f 43f
8:42 5 7 mph 1020.7mb 38f 43f
8:36 2 5 mph 1020.8mb 38f 43f
8:30 2 5 mph 1020.8mb 38f 43f
8:24 2 5 mph 1020.4mb 38f 43f
8:18 3 7 mph 1020.5mb 38f 43f
8:12 3 5 mph 1020.3mb 38f 43f
8:06 3 6 mph 1020.6mb 38f 43f
8:00 2 5 mph 1020.3mb 38f 43f
7:54 3 5 mph 1020.5mb 38f 43f
7:48 2 8 mph 1020.5mb 38f 43f
7:42 2 7 mph 1020.5mb 38f 43f
7:36 2 6 mph 1020.1mb 38f 43f
7:30 1 5 mph 1020.1mb 38f 43f
7:24 1 5 mph 1020.1mb 38f 43f
7:18 2 6 mph 1019.8mb 38f 43f
7:12 3 8 mph 1019.7mb 38f 43f
7:06 5 8 mph 1019.6mb 38f 44f
7:00 5 8 mph 1019.1mb 38f 43f
6:54 6 8 mph 1018.9mb 38f 44f
6:48 6 8 mph 1018.7mb 38f 44f
6:42 3 6 mph 1018.9mb 38f 43f
6:36 2 3 mph 1018.9mb 38f 43f
6:30 2 5 mph 1018.7mb 38f 43f
6:24 1 2 mph 1018.5mb 38f 43f
6:18 1 2 mph 1018.4mb 38f 43f
6:12 1 2 mph 1018.4mb 38f 43f
6:06 2 5 mph 1018.2mb 38f 45f
6:00 3 7 mph 1018.1mb 38f 45f
5:54 7 8 mph 1018mb 38f 44f
5:48 5 6 mph 1018.1mb 38f 42f
5:42 1 3 mph 1018.1mb 38f 42f
5:36 2 3 mph 1018.1mb 38f 43f
5:30 2 5 mph 1017.6mb 38f 44f
5:24 3 5 mph 1017.9mb 38f 43f
5:18 3 6 mph 1018mb 39f 44f
5:12 5
mph
1017.8mb 39f 42f
5:06  -  1 mph 1017.5mb 39f 42f
5:00  -  1 mph 1017.5mb 39f 42f
4:54 1 2 mph 1017.6mb 39f 42f
4:48 1 3 mph 1017.4mb 39f 41f
4:42 3
mph
1017.4mb 39f 41f
4:36 1 2 mph 1017.3mb 39f 41f
4:30 1 2 mph 1017.3mb 39f 41f
4:24 2 3 mph 1017mb 39f 42f
4:18 1 3 mph 1016.9mb 39f 42f
4:12 2 6 mph 1017.2mb 39f 43f
4:06  -  2 mph 1017.3mb 39f 43f
4:00  -  3 mph 1017.1mb 39f 43f
3:54 2 6 mph 1017.5mb 39f 43f
3:48 2 5 mph 1016.9mb 39f 43f
3:42 3
mph
1017mb 39f 42f
3:36 2
mph
1017mb 39f 43f
3:30 2 5 mph 1017.1mb 39f 43f
3:24 3 6 mph 1016.6mb 39f 44f
3:18 6 7 mph 1016.5mb 39f 43f
3:12 5 6 mph 1016.9mb 39f 44f
3:06 5 6 mph 1017mb 39f 44f
3:00 5 7 mph 1017mb 39f 44f
2:54 7
mph
1016.9mb 39f 44f
2:48 6 7 mph 1017.2mb 39f -
2:42 2 3 mph 1017.3mb 39f -
2:36 1 2 mph 1017.2mb 39f -
2:30 2 7 mph 1017.2mb 39f 44f
2:24 6
mph
1016.7mb 39f 45f
2:18 6
mph
- - -
2:12 6
mph
1017mb 39f 45f
2:06 3 6 mph 1017.2mb 39f 47f
2:00 2 3 mph 1017.1mb 39f 47f
1:54 2 6 mph 1016.9mb 39f 47f
1:48 3 6 mph 1016.9mb 39f 47f
1:42 5 7 mph 1017.1mb 39f 47f
1:36 5 8 mph 1017mb 39f 48f
1:30 6 9 mph 1017.2mb 39f 48f
1:24 6 9 mph 1017.2mb 39f 48f
1:18 6 8 mph 1017.5mb 39f 48f
1:12 6 10 mph 1017.5mb 39f 48f
1:06 7 9 mph 1017.5mb 38f 48f
1:00 7 11 mph 1017.5mb 38f 48f
12:54 6 9 mph 1017.6mb 38f 48f
12:48 7 9 mph 1017.6mb 38f 48f
12:42 5 8 mph 1017.6mb 38f 48f
12:36 6 8 mph 1017.8mb 38f 48f
12:30 5 10 mph 1017.7mb 38f 48f
12:24 7 10 mph 1017.6mb 38f 48f
12:18 7 11 mph 1017.6mb 38f 48f
12:12 7 15 mph 1017.7mb 38f 48f
12:06 5 10 mph 1017.4mb 38f 48f
12:00 7 10 mph 1017.4mb 38f 48f
Sex 03/24 11:54 8 10 mph 1018mb 38f 48f
11:48 6 10 mph - - -
11:42 6 13 mph 1017.7mb 38f 48f
11:36 6 11 mph 1017.6mb 38f 47f
11:30 7 11 mph 1017.6mb 38f 48f
11:24 7 11 mph 1017.6mb 38f 48f
11:18 6 7 mph 1017.7mb 38f 48f
11:12 5 6 mph 1017.7mb 38f 48f
11:06 6 9 mph 1017.7mb 38f 48f
11:00 5 8 mph 1017.7mb 38f 48f
10:54 6 8 mph 1017.9mb 38f 48f
10:48 5 9 mph - - -
10:42 7 11 mph 1017.8mb 38f 47f
10:36 7 9 mph 1017.8mb 38f 47f
10:30 7 13 mph 1017.8mb 38f 47f
10:24 7 11 mph 1017.6mb 38f 47f
10:18 8 14 mph 1017.6mb 38f 47f
10:12 8 15 mph 1017.6mb 38f 47f
10:06 10 15 mph 1017.4mb 38f 47f
10:00 9 16 mph 1017.8mb 38f 46f
9:48 10 14 mph 1018.1mb 38f 46f
9:42 10 15 mph 1018.2mb 38f 46f
9:36 11 15 mph 1018.3mb 38f 46f
9:30 10 14 mph 1018.3mb 38f 46f
9:24 10 17 mph 1018.5mb 38f 46f
9:18 11 17 mph - - -
9:12 13 17 mph 1018.3mb 38f 46f
9:06 13 18 mph 1018.3mb 38f 46f
9:00 11 15 mph 1018.4mb 38f 46f
8:54 8 13 mph 1018.7mb 38f 46f
8:48 9 14 mph 1018.8mb 38f 46f
8:42 13 18 mph 1018.8mb 38f 46f
8:36 11 17 mph 1018.7mb 38f 46f
8:30 10 16 mph 1018.7mb 38f 46f
8:24 13 17 mph 1018.6mb 38f 46f
8:18 11 18 mph - - -
8:12 14 21 mph 1018.3mb 38f 46f
8:06 14 18 mph 1018.3mb 38f 46f
8:00 13 21 mph 1018.4mb 38f 46f
7:54 16 22 mph 1018.4mb 38f 46f
7:48 10 22 mph 1018.3mb 38f 46f
7:42 13 20 mph 1018.2mb 38f 45f
7:36 13 18 mph 1018.1mb 38f 45f
7:30 14 21 mph 1018mb 38f 45f
7:24 16 22 mph 1017.9mb 38f 45f
7:18 11 20 mph - - -
7:12 16 21 mph 1018mb 38f 46f
7:06 17 23 mph 1018.1mb 38f 46f
7:00 14 22 mph 1018.1mb 38f 46f
6:54 13 21 mph 1018.1mb 38f 46f
6:48 15 21 mph 1018.1mb 38f 46f
6:42 13 20 mph 1018.2mb 38f 46f
6:36 13 18 mph 1018.4mb 38f 46f
6:30 9 17 mph 1018.4mb 38f 46f
6:24 13 21 mph 1018.5mb 38f 46f
6:18 13 22 mph - - -
6:12 11 21 mph 1018.6mb 38f 46f
6:06 14 21 mph 1018.9mb 38f 46f
6:00 13 24 mph 1019.2mb 38f 46f
5:54 8 21 mph 1019.2mb 38f 46f
5:48 17 23 mph - - -
5:42 11 18 mph 1019.3mb 38f 46f
5:36 11 24 mph 1019.2mb 38f 46f
5:30 15 25 mph 1019.3mb 38f 46f
5:24 11 22 mph 1019.3mb 38f 46f
5:18 15 23 mph 1019.4mb 38f 46f
5:12 15 23 mph 1019.7mb 38f 45f
5:06 13 21 mph 1019.9mb 38f 45f
5:00 15 22 mph 1020.2mb 38f 45f
4:54 14 22 mph 1020.2mb 38f 45f
4:48 15 22 mph 1020.5mb 38f 45f
4:42 15 22 mph 1020.6mb 38f 45f
4:36 9 21 mph 1020.6mb 38f 45f
4:30 17 23 mph 1020.7mb 38f 45f
4:24 16 29 mph 1020.5mb 38f 45f
4:18 13 21 mph 1020.6mb 38f 45f
4:12 13 22 mph 1020.8mb 38f 45f
4:06 11 21 mph 1020.8mb 38f 45f
4:00 14 24 mph 1021mb 38f 44f
3:54 15 24 mph 1021mb 38f 44f
3:48 14 24 mph 1021.1mb 38f 44f
3:42 11 20 mph 1021.4mb 39f 44f
3:36 14 21 mph 1021.4mb 39f 44f
3:30 15 24 mph 1021.4mb 39f 44f
3:24 18 26 mph 1021.6mb 39f 44f
3:18 17 28 mph 1021.6mb 39f 44f
3:12 18 26 mph 1021.8mb 39f 43f
3:06 14 24 mph 1022mb 39f 43f
3:00 17 25 mph 1022.3mb 39f 43f
2:54 18 26 mph 1022.3mb 39f 43f
2:48 16 26 mph 1022.4mb 39f 43f
2:42 17 24 mph 1022.6mb 39f 43f
2:36 15 28 mph 1022.6mb 38f 43f
2:30 14 29 mph 1022.7mb 38f 43f
2:24 17 30 mph 1023.1mb 38f 43f
2:18 13 23 mph 1023.5mb 38f 43f
2:12 15 23 mph 1023.5mb 38f 43f
2:06 14 22 mph 1024.1mb 38f 43f
2:00 15 25 mph 1024.1mb 38f 42f
1:54 16 23 mph 1024.4mb 38f 42f
1:48 18 26 mph 1024.4mb 38f 42f
1:42 9 25 mph 1024.6mb 38f 42f
1:36 13 21 mph 1024.6mb 38f 42f
1:30 16 23 mph 1025.3mb 38f 42f
1:24 15 26 mph 1025.3mb 38f 42f
1:18 20 25 mph 1025.6mb 38f 42f
1:12 14 18 mph 1026.2mb 38f 42f
1:06 11 25 mph 1026.2mb 38f 42f
1:00 16 23 mph 1026.5mb 38f 42f
12:54 14 22 mph 1027mb 38f 43f
12:48 18 25 mph 1027mb 38f 42f
12:42 11 20 mph 1027.1mb 38f 43f
12:36 16 23 mph 1027.4mb 38f 43f
12:30 16 20 mph 1027.4mb 38f 42f
12:24 14 21 mph 1027.5mb 38f 42f
12:18 15 21 mph 1027.7mb 38f 42f
12:12 13 20 mph 1027.9mb 38f 42f
12:06 13 17 mph 1028mb 38f 42f
12:00 18 26 mph 1028mb 38f 42f
11:54 13 23 mph 1028.1mb 38f 42f
11:48 18 25 mph 1028.3mb 38f 42f
11:42 11 25 mph 1028.5mb 38f 42f
11:36 20 28 mph 1028.7mb 38f 42f
11:30 18 28 mph 1028.9mb 38f 42f
11:24 18 29 mph 1029.1mb 38f 42f
11:18 21 28 mph 1029.1mb 38f 42f
11:12 18 29 mph 1029.3mb 38f 42f
11:06 21 29 mph 1029.3mb 38f 42f
11:00 15 24 mph 1029.4mb 38f 42f
10:54 20 25 mph 1029.3mb 38f 41f
10:48 11 24 mph 1028.9mb 38f 42f
10:42 13 23 mph 1028.9mb 38f 41f
10:36 14 24 mph 1028.8mb 38f 41f
10:30 13 24 mph 1029.3mb 38f 41f
10:24 14 21 mph 1029.7mb 38f 41f
10:18 18 22 mph 1029.7mb 38f 41f
10:12 9 18 mph 1029.6mb 38f 40f
10:06 14 21 mph 1029.8mb 38f 40f
10:00 10 23 mph 1029.6mb 38f 40f
9:54 14 23 mph 1029.8mb 38f 40f
9:48 9 14 mph 1029.9mb 38f 40f
9:42 15 21 mph 1029.8mb 38f 40f
9:36 9 15 mph 1029.8mb 38f 39f
9:30 11 16 mph 1029.7mb 38f 39f
9:24 13 17 mph 1029.8mb 38f 38f
9:18 13 16 mph 1029.8mb 38f 38f
9:12 11 14 mph 1030mb 38f 37f
9:06 10 14 mph 1030.3mb 38f 37f
9:00 8 13 mph 1030.4mb 38f 37f
8:54 8 10 mph 1030.7mb 38f 36f
8:48 9 13 mph 1030.8mb 38f 36f
8:42 7 10 mph 1030.9mb 38f 35f
8:36 8 13 mph 1031.1mb 38f 35f
8:30 8 10 mph 1031.2mb 38f 34f
8:24 7 9 mph 1031.3mb 38f 34f
8:18 6 10 mph 1031.4mb 38f 34f
8:12 7 11 mph 1031.3mb 38f 34f
8:06 7 11 mph 1031.2mb 38f 33f
8:00 8 10 mph 1031.4mb 38f 33f
7:54 6 8 mph 1031.7mb 38f 32f
7:48 6 7 mph 1031.9mb 38f 32f
7:42 5 6 mph 1032.2mb 38f 31f
7:36 2 3 mph 1032.1mb 38f 31f
7:30 3 5 mph 1032.3mb 38f 31f
7:24 3 5 mph 1032.3mb 38f 31f
7:18 3 5 mph 1032.4mb 38f 31f
7:12  -  2 mph 1032.3mb 38f 30f
7:06 1 2 mph 1032.5mb 38f 30f
7:00 1 2 mph 1032.5mb 38f 30f
6:54 2 6 mph 1032.5mb 38f 30f
6:48 3 5 mph 1032.4mb 38f 30f
6:42 2 3 mph 1032.4mb 38f 29f
6:36 3 5 mph 1032.4mb 38f 29f
6:30 2 3 mph 1032.4mb 38f 29f
6:24 1 3 mph 1032.3mb 38f 29f
6:18 3 5 mph 1032.1mb 38f 29f
6:12 2 5 mph 1031.9mb 38f 29f
6:06 5 6 mph 1031.9mb 38f 29f
6:00 6
mph
1031.7mb 38f 29f
5:54 3 5 mph 1031.6mb 38f 29f
5:48 3 6 mph 1031.6mb 38f 29f
5:42 5 6 mph 1031.8mb 38f 29f
5:36 3 5 mph 1031.7mb 38f 29f
5:30 3 6 mph 1031.8mb 38f 29f
5:24 5 6 mph 1031.8mb 38f 29f
5:18 2 3 mph 1032.1mb 38f 29f
5:12  -  2 mph 1032mb 38f 29f
5:06  -  2 mph 1032.2mb 38f 29f
5:00 1 3 mph 1032.1mb 38f 29f
4:54 2 5 mph 1032.2mb 39f 29f
4:48 2 6 mph 1032.1mb 39f 29f
4:42 5 6 mph 1032.2mb 39f 29f
4:36 3 7 mph 1032.2mb 39f 29f
4:30 5 7 mph 1032.2mb 39f 29f
4:24 5 6 mph 1032.2mb 39f 29f
4:18 5 7 mph 1032.1mb 39f 29f
4:12 6 7 mph 1032.2mb 39f 29f
4:06 5 7 mph 1032.4mb 39f 29f
4:00 6 7 mph 1032.6mb 39f 29f
3:54 6 10 mph 1032.6mb 39f 29f
3:48 8 9 mph 1033mb 39f 29f
3:42 6 8 mph 1032.9mb 39f 30f
3:36 3 5 mph 1032.6mb 39f 30f
3:30 2 5 mph 1032.7mb 39f 30f
3:24 5
mph
1032.7mb 39f 29f
3:18 2 5 mph 1032.7mb 39f 29f
3:12 3 5 mph 1032.6mb 39f 30f
3:06 6
mph
1032.6mb 39f 30f
3:00 3 5 mph 1032.5mb 39f 30f
2:54  -  2 mph 1032.6mb 39f 30f
2:48  -  1 mph 1032.7mb 39f 30f
2:42 2
mph
1032.9mb 39f 30f
2:36 1 2 mph 1032.7mb 39f 30f
2:30  -  2 mph 1032.6mb 39f 30f
2:24 1 2 mph 1032.6mb 39f 30f
2:18  -  1 mph 1032.5mb 39f 30f
2:12  -  1 mph 1032.5mb 39f 30f
2:06 1 3 mph 1032.5mb 39f 30f
2:00 2 3 mph 1032.5mb 39f 30f
1:54  -  3 mph 1032.6mb 39f 30f
1:48 2 3 mph 1032.8mb 38f 30f
1:42 1
mph
1033.2mb 38f -
1:36  -  2 mph 1033.2mb 38f -
1:30 2 3 mph 1033.4mb 38f 31f
1:24 2 3 mph 1033.3mb 38f 31f
1:18 2 3 mph 1033.2mb 38f 31f
1:12 2 5 mph 1033.3mb 38f 31f
1:06 3 5 mph 1033.4mb 38f 32f
1:00 5 6 mph 1033.2mb 38f 32f
12:54 5 6 mph 1033.2mb 38f 32f
12:48 3 5 mph 1033.1mb 38f 32f
12:42 6 7 mph 1033.1mb 38f 32f
12:36 5 8 mph 1033mb 38f 32f
12:30 2 3 mph 1032.9mb 38f 32f
12:24 2 5 mph 1032.9mb 38f 32f
12:18 2 8 mph 1032.9mb 38f 32f
12:12 6 8 mph 1033mb 38f 32f
12:06 5 6 mph 1033.1mb 38f 32f
12:00 6 9 mph 1033mb 38f 32f
Qui 03/23 11:54 6 7 mph 1032.9mb 38f 33f
11:48 5 7 mph 1033.2mb 38f 33f
11:42 3 7 mph 1033.3mb 38f 33f
11:36 5 7 mph 1033.2mb 38f 33f
11:30 6 8 mph 1033.3mb 38f 33f
11:24 7 9 mph 1033.1mb 38f 33f
11:18 5 6 mph 1033.4mb 38f 33f
11:12 2 6 mph 1033.6mb 38f 33f
11:06 6 10 mph 1033.4mb 38f 33f
11:00 8 11 mph 1033.3mb 38f 33f
10:54 6 8 mph 1033.4mb 38f 33f
10:48 6 8 mph 1033.5mb 38f 33f
10:42 3 9 mph 1033.5mb 38f 33f
10:36 7 10 mph 1033.4mb 38f 33f
10:30 6 8 mph 1033.6mb 38f 33f
10:24 2 6 mph 1033.7mb 38f 33f
10:18 5 8 mph - - -
10:12 7 10 mph 1033.4mb 38f 34f
10:06 7 9 mph 1033.5mb 38f 34f
10:00 7 8 mph 1033.5mb 38f 33f
9:54 5 6 mph 1033.4mb 38f 33f
9:48 3 7 mph 1033.2mb 38f 34f
9:42 5 9 mph 1033mb 38f 34f
9:36 6 9 mph 1032.8mb 38f 34f
9:30 6 8 mph 1032.9mb 38f 34f
9:24 6
mph
1033mb 38f 34f
9:18 3
mph
- - -
9:12 2 5 mph 1033.2mb 38f 34f
9:06 3 6 mph 1032.9mb 38f 34f
9:00 5 8 mph 1032.6mb 38f 35f
8:54 6 7 mph 1032.5mb 38f 35f
8:48 3 6 mph 1032.5mb 38f 35f
8:42  -  3 mph 1032.4mb 38f 35f
8:36  -  5 mph 1032.4mb 38f 35f
8:30 3 11 mph 1032.2mb 38f 35f
8:24 7 10 mph 1031.9mb 38f 36f
8:18 8 11 mph - - -
8:12 7 9 mph 1031.9mb 38f 36f
8:06 3 8 mph 1031.8mb 38f 36f
8:00 6 9 mph 1031.7mb 38f 36f
7:54 9 13 mph 1031.6mb 38f 36f
7:48 8 13 mph 1031.6mb 38f 36f
7:42 9 16 mph 1031.5mb 38f 36f
7:36 11 15 mph 1031.3mb 38f 37f
7:30 10 14 mph 1031.2mb 38f 37f
7:24 11 14 mph 1031.1mb 38f 37f
7:18 9 13 mph - - -
7:12 9 14 mph 1031.1mb 38f 37f
7:06 10 14 mph 1031mb 38f 37f
7:00 9 16 mph 1031mb 38f 37f
6:54 11 17 mph 1031mb 38f 37f
6:48 11 17 mph 1030.9mb 38f 37f
6:42 14 17 mph 1030.7mb 38f 38f
6:36 11 22 mph 1030.6mb 38f 38f
6:30 10 18 mph 1030.4mb 38f 38f
6:24 14 21 mph 1030.4mb 38f 38f
6:18 10 18 mph - - -
6:12 9 21 mph 1030.1mb 38f 39f
6:06 10 17 mph 1030.1mb 39f 39f
6:00 11 21 mph 1030mb 39f 38f
5:54 17 23 mph 1029.9mb 39f 38f
5:48 9 20 mph 1029.8mb 39f 39f
5:42 15 22 mph 1029.8mb 39f 39f
5:36 13 17 mph 1029.8mb 39f 39f
5:30 9 17 mph 1029.9mb 39f 39f
5:24 10 17 mph 1029.9mb 39f 40f
5:18 13 17 mph 1029.8mb 39f 39f
5:12 13 20 mph 1029.8mb 39f 39f
5:06 11 18 mph 1029.7mb 39f 39f
5:00 14 22 mph 1029.6mb 39f 39f
4:54 16 20 mph 1029.7mb 39f 39f
4:48 17 22 mph 1029.7mb 39f 39f
4:42 15 23 mph 1029.7mb 39f 38f
4:36 13 24 mph 1029.7mb 39f 39f
4:30 7 20 mph 1029.7mb 39f 39f
4:24 11 17 mph 1029.7mb 39f 39f
4:18 11 21 mph 1029.7mb 39f 39f
4:12 13 22 mph 1029.7mb 39f 39f
4:06 15 21 mph 1029.6mb 39f 39f
4:00 8 20 mph 1029.6mb 39f 39f
3:54 13 18 mph 1029.7mb 39f 38f
3:48 14 18 mph 1029.8mb 39f 38f
3:42 13 26 mph 1029.8mb 39f 38f
3:36 17 24 mph 1029.8mb 39f 38f
3:30 16 23 mph 1029.7mb 39f 38f
3:24 11 20 mph 1029.7mb 39f 38f
3:18 14 21 mph 1029.7mb 39f 37f
3:12 13 23 mph 1029.8mb 39f 38f
3:06 9 22 mph 1029.8mb 39f 38f
3:00 10 23 mph 1029.8mb 39f 37f
2:54 15 26 mph 1029.9mb 39f 36f
2:48 11 23 mph 1029.8mb 39f 37f
2:42 15 23 mph 1029.9mb 38f 37f
2:36 14 28 mph 1029.9mb 38f 36f
2:30 11 21 mph 1029.9mb 38f 36f
2:24 16 22 mph 1029.9mb 38f 35f
2:18 13 20 mph 1030mb 38f 35f
2:12 15 22 mph 1030mb 38f 35f
2:06 13 21 mph 1030.1mb 38f 35f
2:00 14 21 mph 1030.1mb 38f 34f
1:54 13 22 mph 1030.2mb 38f 34f
1:48 11 18 mph 1030.3mb 38f 35f
1:42 10 21 mph 1030.4mb 38f 34f
1:36 14 21 mph 1030.5mb 38f 34f
1:30 17 24 mph 1030.4mb 38f 33f
1:24 11 17 mph 1030.5mb 38f 33f
1:18 13 21 mph 1030.5mb 38f 34f
1:12 11 20 mph 1030.7mb 38f 33f
1:06 7 15 mph 1030.8mb 38f 33f
1:00 11 20 mph 1030.9mb 37f 33f
12:54 11 17 mph 1031mb 37f 32f
12:48 13 18 mph 1031.1mb 37f 32f
12:42 11 17 mph 1031.2mb 37f 32f
12:36 8 17 mph 1031.3mb 37f 31f
12:30 11 17 mph 1031.4mb 37f 32f
12:24 10 17 mph 1031.4mb 37f 31f
12:18 8 17 mph 1031.5mb 37f 31f
12:12 14 21 mph 1031.5mb 37f 30f
12:06 13 18 mph 1031.5mb 37f 31f
12:00 13 20 mph 1031.6mb 37f 30f
11:54 7 18 mph 1031.7mb 37f 31f
11:48 14 21 mph 1031.7mb 37f 30f
11:42 10 23 mph 1031.8mb 37f 31f
11:36 6 15 mph 1032mb 37f 31f
11:30 9 14 mph 1032mb 37f 30f
11:24 9 18 mph 1032mb 37f 30f
11:18 11 17 mph 1032mb 37f 29f
11:12 13 16 mph 1032.2mb 37f 29f
11:06 13 20 mph 1032.2mb 37f 28f
11:00 13 20 mph 1032.3mb 37f 28f
10:54 13 22 mph 1032.2mb 37f 27f
10:48 10 20 mph 1032.2mb 37f 28f
10:42 11 17 mph 1032.3mb 37f 28f
10:36 11 17 mph 1032.3mb 37f 27f
10:30 10 22 mph 1032.2mb 37f 27f
10:24 15 23 mph 1032.2mb 37f 26f
10:18 14 20 mph 1032.2mb 37f 27f
10:12 14 18 mph 1032.3mb 37f 26f
10:06 14 23 mph 1032.3mb 37f 26f
10:00 17 23 mph 1032.3mb 37f 26f
9:54 16 24 mph 1032.3mb 37f 26f
9:48 14 18 mph 1032.4mb 37f 25f
9:42 11 21 mph 1032.3mb 37f 25f
9:36 13 23 mph 1032.4mb 37f 24f
9:30 17 26 mph 1032.4mb 37f 25f
9:24 15 21 mph 1032.4mb 37f 24f
9:18 17 25 mph 1032.3mb 37f 23f
9:12 11 22 mph 1032.2mb 37f 24f
9:06 17 25 mph 1032.2mb 37f 23f
9:00 18 25 mph 1032.2mb 37f 23f
8:54 17 22 mph 1032.1mb 37f 23f
8:48 14 21 mph 1032.1mb 37f 23f
8:42 14 22 mph 1032.1mb 37f 22f
8:36 14 26 mph 1032.1mb 38f 22f
8:30 9 17 mph 1032.1mb 38f 22f
8:24 15 20 mph 1032.1mb 38f 22f
8:18 14 18 mph 1032.1mb 38f 22f
8:12 10 15 mph 1032.1mb 38f 21f
8:06 10 15 mph 1032mb 38f 22f
8:00 9 17 mph 1031.8mb 38f 21f
7:54 8 15 mph 1031.8mb 38f 20f
7:48 9 13 mph 1031.8mb 38f 21f
7:42 11 15 mph 1031.8mb 38f 21f
7:36 10 14 mph 1031.8mb 38f 20f
7:30 6 14 mph 1031.6mb 38f 20f
7:24 8 10 mph 1031.6mb 38f 20f
7:18 6 10 mph - - -
7:12 7 11 mph 1031.2mb 38f 20f
7:06 6 14 mph 1031.1mb 38f 20f
7:00 6 13 mph 1031.1mb 38f 20f
6:54 9 11 mph 1031mb 38f 19f
6:48 9 11 mph 1031mb 38f 19f
6:42 8 13 mph 1030.8mb 38f 19f
6:36 8 14 mph 1030.7mb 38f 19f
6:30 9 14 mph 1030.5mb 38f 19f
6:24 9 13 mph 1030.4mb 38f 19f
6:18 8 13 mph 1030.4mb 38f 19f
6:12 9 14 mph 1030.3mb 38f 19f
6:06 6 14 mph 1030mb 38f 19f
6:00 8 13 mph 1029.9mb 38f 19f
5:54 11 15 mph 1029.9mb 38f 19f
5:48 8 15 mph 1029.7mb 38f 19f
5:42 9 15 mph 1029.6mb 38f 19f
5:36 9 15 mph 1029.5mb 38f 19f
5:30 10 14 mph 1029.5mb 38f 19f
5:24 10 13 mph 1029.5mb 38f 19f
5:18 9 13 mph 1029.3mb 38f 19f
5:12 9 17 mph 1029.2mb 38f 19f
5:06 11 16 mph 1029.2mb 38f 19f
5:00 11 20 mph 1029mb 39f 19f
4:54 11 16 mph 1028.9mb 39f 20f
4:48 9 16 mph 1028.9mb 39f 19f
4:42 9 17 mph 1028.9mb 39f 19f
4:36 13 17 mph 1028.8mb 39f 19f
4:30 9 17 mph 1028.8mb 39f 19f
4:24 13 16 mph 1028.6mb 39f 19f
4:18 11 16 mph 1028.6mb 39f 19f
4:12 9 16 mph 1028.6mb 39f 20f
4:06 13 17 mph 1028.6mb 39f 20f
4:00 11 16 mph 1028.6mb 39f 19f
3:54 11 15 mph 1028.5mb 39f 19f
3:48 10 16 mph 1028.5mb 39f 20f
3:42 9 16 mph 1028.5mb 39f 19f
3:36 13 18 mph 1028.5mb 39f 19f
3:30 14 21 mph 1028.5mb 39f 19f
3:24 11 20 mph 1028.4mb 39f 20f
3:18 15 20 mph 1028.4mb 39f 19f
3:12 13 18 mph 1028.4mb 39f 19f
3:06 16 23 mph 1028.4mb 39f 19f
3:00 10 20 mph 1028.3mb 39f 19f
2:54 13 17 mph 1028.3mb 39f 20f
2:48 11 22 mph 1028.3mb 39f -
2:42 14 22 mph 1028.2mb 39f -
2:36 16 22 mph 1028.1mb 39f -
2:30 15 21 mph 1028.1mb 39f 20f
2:24 11 18 mph 1028.1mb 39f 20f
2:18 11 20 mph 1028.2mb 39f 20f
2:12 11 20 mph 1028.2mb 39f 20f
2:06 17 22 mph 1028.2mb 39f 20f
2:00 15 22 mph 1028.3mb 39f 20f
1:54 13 18 mph 1028.3mb 39f 20f
1:48 9 21 mph 1028.3mb 39f -
1:42 15 23 mph 1028.2mb 39f -
1:36 15 25 mph 1028.1mb 39f -
1:30 16 25 mph 1028mb 39f 20f
1:24 14 20 mph 1027.9mb 39f 20f
1:18 14 20 mph 1027.8mb 39f 20f
1:12 16 22 mph 1027.6mb 39f 20f
1:06 17 22 mph 1027.5mb 39f 20f
1:00 17 23 mph 1027.5mb 39f 20f
12:54 22 33 mph 1027.3mb 39f 20f
12:48 18 23 mph 1027.3mb 39f 21f
12:42 13 22 mph 1027.3mb 38f 21f
12:36 10 20 mph 1027.2mb 38f 21f
12:30 14 24 mph 1027mb 38f 21f
12:24 16 28 mph 1027mb 38f 21f
12:18 22 26 mph 1026.7mb 38f 21f
12:12 16 26 mph 1026.6mb 38f 21f
12:06 16 25 mph 1026.6mb 38f 21f
12:00 14 21 mph 1026.5mb 38f 21f
Qua 03/22 11:54 22 28 mph 1026.4mb 38f 22f
11:48 20 29 mph 1026.1mb - -
11:42 26 33 mph 1026mb 39f 22f
11:36 22 31 mph 1026mb 39f 22f
11:30 16 28 mph 1025.8mb 39f 22f
11:24 21 30 mph 1025.7mb 38f 22f
11:18 18 23 mph 1025.6mb 38f 22f
11:12 9 24 mph 1025.5mb 38f 22f
11:06 15 26 mph 1025.4mb 38f 22f
11:00 16 29 mph 1025.3mb 38f 23f
10:54 15 30 mph 1025.2mb 38f 23f
10:48 15 29 mph - - -
10:42 22 31 mph 1025.1mb 38f 23f
10:36 17 24 mph 1025mb 38f 23f
10:30 18 26 mph 1024.9mb 38f 23f
10:24 18 26 mph 1024.7mb 38f 23f
10:18 18 28 mph 1024.6mb 38f 23f
10:12 20 28 mph 1024.6mb 38f 24f
10:06 17 25 mph 1024.4mb 38f 24f
10:00 22 29 mph 1024.3mb 38f 24f
9:54 22 29 mph 1024.2mb 38f 24f
9:48 20 26 mph 1024.1mb - -
9:42 18 28 mph 1023.9mb 38f 24f
9:36 20 36 mph 1023.9mb 38f 24f
9:30 21 30 mph 1023.9mb 38f 24f
9:24 16 37 mph 1023.9mb 38f 24f
9:18 23 33 mph 1023.7mb 38f 24f
9:12 22 29 mph 1023.6mb 38f 24f
9:06 25 36 mph 1023.4mb 38f 24f
9:00 25 38 mph 1023.3mb 38f 25f
8:54 20 31 mph 1023.2mb 38f 25f
8:48 17 25 mph 1023mb - -
8:42 25 36 mph 1022.9mb 38f 25f
8:36 14 26 mph 1022.6mb 38f 26f
8:30 16 24 mph 1022.6mb 38f 26f
8:24 14 21 mph 1022.5mb 38f 26f
8:18 18 26 mph 1022.3mb 38f 26f
8:12 20 26 mph 1022.1mb 38f 26f
8:06 21 34 mph 1021.9mb 38f 26f
8:00 16 31 mph 1021.8mb 38f 26f
7:54 18 30 mph 1021.6mb 38f 26f
7:48 17 29 mph 1021.6mb - -
7:42 20 28 mph 1021.6mb 38f 27f
7:36 14 29 mph 1021.5mb 38f 27f
7:30 16 33 mph 1021.1mb 38f 27f
7:24 17 32 mph 1020.9mb 38f 27f
7:18 24 33 mph 1020.7mb 38f 27f
7:12 21 32 mph 1020.7mb 38f 27f
7:06 17 28 mph 1020.6mb 38f 28f
7:00 18 29 mph 1020.4mb 38f 28f
6:54 21 25 mph 1020.2mb 38f 28f
6:48 18 26 mph 1020.1mb - -
6:42 17 28 mph 1020mb 38f 29f
6:36 20 31 mph 1019.8mb 38f 29f
6:30 24 36 mph 1019.5mb 38f 29f
6:24 20 26 mph 1019.4mb 38f 29f
6:18 16 30 mph 1019.2mb 38f 29f
6:12 20 32 mph 1019.2mb 38f 29f
6:06 18 26 mph 1019.2mb 38f 29f
6:00 20 30 mph 1019mb 38f 30f
5:54 22 29 mph 1018.7mb 38f 30f
5:48 20 26 mph - - -
5:42 21 29 mph 1018.4mb 38f 30f
5:36 14 21 mph 1018.2mb 38f 31f
5:30 17 30 mph 1018.2mb 38f 31f
5:24 20 31 mph 1018mb 38f 31f
5:18 21 30 mph 1017.8mb 38f 30f
5:12 20 33 mph 1017.7mb 39f 31f
5:06 22 33 mph 1017.7mb 39f 30f
5:00 17 29 mph 1017.7mb 39f 31f
4:54 20 28 mph 1017.4mb 39f 31f
4:48 15 31 mph 1017.3mb 39f 31f
4:42 22 29 mph 1017.3mb 39f 31f
4:36 22 33 mph 1017.3mb 39f 31f
4:30 21 36 mph 1017mb 39f 31f
4:24 24 37 mph 1016.9mb 39f 31f
4:18 22 31 mph 1016.9mb 39f 31f
4:12 24 31 mph 1016.8mb 39f 31f
4:06 26 37 mph 1016.7mb 39f 31f
4:00 22 34 mph 1016.7mb 39f 31f
3:54 28 37 mph 1016.5mb 39f 31f
3:48 23 34 mph 1016.5mb 39f 32f
3:42 22 31 mph 1016.3mb 39f 32f
3:36 20 34 mph 1016.3mb 39f 32f
3:30 26 37 mph 1016.1mb 39f 31f
3:24 18 31 mph 1016mb 39f 32f
3:18 21 32 mph - - -
3:12 26 38 mph 1015.9mb 39f 32f
3:06 17 34 mph 1015.8mb 39f 32f
3:00 24 38 mph 1015.4mb 39f 32f
2:54 21 30 mph 1015.4mb 39f 33f
2:48 18 31 mph 1015.4mb 39f 33f
2:42 23 36 mph 1015.3mb 39f 33f
2:36 20 29 mph 1015.3mb 39f 33f
2:30 18 30 mph 1015.2mb 39f 33f
2:24 22 31 mph 1015.1mb 39f 33f
2:18 24 34 mph - - -
2:12 23 29 mph 1014.9mb 39f 33f
2:06 23 33 mph 1014.8mb 39f 33f
2:00 17 38 mph 1014.8mb 39f 33f
1:54 24 34 mph 1014.7mb 39f 32f
1:48 22 37 mph 1014.4mb 39f 34f
1:42 24 34 mph 1014.4mb 39f 34f
1:36 18 28 mph 1014.5mb 39f 34f
1:30 15 29 mph 1014.5mb 39f 34f
1:24 23 38 mph 1014.5mb 39f 34f
1:18 21 33 mph 1014.4mb 39f 34f
1:12 17 28 mph 1014.2mb 39f 35f
1:06 24 34 mph 1014.2mb 39f 34f
1:00 21 32 mph 1013.9mb 39f 35f
12:54 22 34 mph 1013.9mb 39f 34f
12:48 17 33 mph 1013.8mb 39f 35f
12:42 24 37 mph 1013.8mb 39f 34f
12:36 23 33 mph 1013.7mb 39f 35f
12:30 26 33 mph 1013.7mb 39f 35f
12:24 24 37 mph 1013.1mb 39f 35f
12:18 20 33 mph 1013mb 39f 36f
12:12 24 39 mph 1012.7mb 39f 36f
12:06 28 43 mph 1012.7mb 39f 36f
12:00 30 38 mph 1012.5mb 39f 36f
11:54 21 31 mph 1012.4mb 39f 37f
11:48 18 36 mph 1012.4mb 39f 37f
11:42 25 34 mph 1012.4mb 39f 37f
11:36 16 29 mph 1012.3mb 39f 37f
11:30 20 31 mph 1012mb 39f 37f
11:24 18 26 mph 1012mb 39f 37f
11:18 18 25 mph 1012.1mb 39f 38f
11:12 20 26 mph 1011.9mb 39f 38f
11:06 14 29 mph 1011.7mb 39f 37f
11:00 22 33 mph 1011.6mb 39f 37f
10:54 21 32 mph 1011.4mb 39f 37f
10:48 21 29 mph 1011.4mb 39f 38f
10:42 16 32 mph 1011.2mb 39f 37f
10:36 20 30 mph 1011.2mb 39f 37f
10:30 20 29 mph 1011.2mb 39f 37f
10:24 24 33 mph 1011mb 39f 38f
10:18 24 33 mph 1010.8mb 39f 38f
10:12 23 28 mph 1010.8mb 39f 38f
10:06 16 26 mph 1010.8mb 39f 39f
10:00 21 34 mph 1010.8mb 39f 38f
9:54 20 28 mph 1010.7mb 39f 39f
9:48 23 33 mph 1010.5mb 39f 38f
9:42 15 25 mph 1010.5mb 39f 38f
9:36 20 32 mph 1010.5mb 39f 38f
9:30 18 31 mph 1010.4mb 39f 37f
9:24 16 31 mph 1010mb 39f 36f
9:18 21 30 mph 1009.9mb 39f 38f
9:12 23 33 mph 1009.6mb 39f 40f
9:06 20 29 mph 1009.6mb 39f 40f
9:00 28 37 mph 1009.5mb 39f 40f
8:54 26 40 mph 1009.3mb 39f 40f
8:48 22 36 mph 1009.2mb 39f 41f
8:42 21 34 mph 1009.2mb 39f 40f
8:36 23 33 mph 1009.2mb 39f 40f
8:30 28 37 mph 1008.9mb 39f 40f
8:24 21 32 mph 1008.9mb 39f 40f
8:18 23 32 mph 1008.8mb 39f 40f
8:12 17 24 mph 1008.9mb 39f 40f
8:06 17 22 mph 1008.9mb 39f 40f
8:00 14 22 mph 1008.9mb 39f 40f
7:54 13 20 mph 1008.8mb 39f 40f
7:48 13 18 mph 1008.9mb 39f 39f
7:42 13 17 mph 1008.8mb 39f 39f
7:36 10 18 mph 1008.8mb 39f 39f
7:30 13 18 mph 1008.8mb 39f 39f
7:24 9 14 mph 1008.8mb 39f 39f
7:18 10 18 mph 1008.8mb 39f 39f
7:12 8 14 mph 1008.8mb 39f 39f
7:06 8 14 mph 1008.7mb 39f 39f
7:00 10 16 mph 1008.5mb 39f 39f
6:54 10 16 mph 1008.5mb 39f 39f
6:48 11 17 mph 1008.4mb 39f 38f
6:42 14 21 mph 1008.2mb 39f 39f
6:36 11 17 mph 1008.2mb 39f 39f
6:30 11 18 mph 1008.2mb 39f 39f
6:24 11 17 mph 1008.1mb 39f 39f
6:18 9 20 mph - - -
6:12 6 16 mph 1008.1mb 39f 39f
6:06 9 17 mph 1008mb 39f 39f
6:00 11 21 mph 1007.9mb 39f 39f
5:54 7 11 mph 1007.9mb 39f 39f
5:48 8 15 mph 1007.8mb 39f 39f
5:42 11 16 mph 1007.8mb 39f 39f
5:36 10 17 mph 1007.8mb 39f 39f
5:30 10 20 mph 1007.8mb 39f 40f
5:24 14 22 mph 1007.8mb 39f 40f
5:18 10 16 mph 1007.8mb 39f 40f
5:12 14 21 mph 1007.8mb 39f 40f
5:06 8 13 mph 1007.8mb 39f 40f
5:00 8 15 mph 1007.8mb 39f 40f
4:54 7 15 mph 1007.7mb 39f 40f
4:48 8 16 mph 1007.8mb 39f 41f
4:42 9 21 mph 1007.8mb 39f 41f
4:36 10 20 mph 1007.7mb 39f 41f
4:30 14 18 mph 1007.6mb 39f 41f
4:24 14 21 mph 1007.6mb 39f 41f
4:18 7 14 mph - - -
4:12 7 14 mph 1007.4mb 39f 42f
4:06 9 16 mph 1007.2mb 39f 41f
4:00 8 11 mph 1007.2mb 39f 41f
3:54 7 10 mph 1007.2mb 39f 41f
3:48 8 9 mph 1007.2mb 39f 40f
3:42 5 7 mph 1007.2mb 39f 40f
3:36 3 5 mph 1007.4mb 39f 39f
3:30 2 3 mph 1007.5mb 39f 39f
3:24 2 3 mph 1007.6mb 39f 38f
3:18 2 3 mph 1007.8mb 39f 38f
3:12 2 3 mph 1007.8mb 39f 38f
3:06 1 2 mph 1007.9mb 39f 38f
3:00  -  3 mph 1007.9mb 39f 38f
2:54 3
mph
1007.9mb 39f 38f
2:48 2 3 mph 1008.1mb 39f -
2:42 2 5 mph 1008.1mb 39f -
2:36 3 5 mph 1008.1mb 39f -
2:30 3
mph
1008.2mb 39f 40f
2:24 2 3 mph 1008.2mb 39f 40f
2:18 3
mph
1008.3mb 39f 40f
2:12 2 3 mph 1008.3mb 39f 40f
2:06 2
mph
1008.4mb 39f 41f
2:00 1 2 mph 1008.5mb 39f 41f
1:54 1 2 mph 1008.6mb 39f 41f
1:48 2 6 mph 1008.7mb 39f 42f
1:42 3 6 mph - - -
1:36 3 5 mph - - -
1:30 2 3 mph 1008.7mb 39f 42f
1:24 3 6 mph 1008.7mb 39f 43f
1:18 5 6 mph 1008.7mb 39f 43f
1:12 2 5 mph 1008.6mb 39f 43f
1:06 3 5 mph 1008.7mb 39f 43f
1:00 3 5 mph 1008.7mb 39f 43f
12:54 3 7 mph 1008.7mb 39f 43f
12:48 5 7 mph 1008.7mb 39f 44f
12:42 6 7 mph 1008.8mb 39f 44f
12:36 5 8 mph 1008.8mb 39f 44f
12:30 3 6 mph 1008.8mb 39f 44f
12:24 5 9 mph 1008.7mb 39f 44f
12:18 7 13 mph 1008.9mb 40f 45f
12:12 3 9 mph 1009mb 40f 44f
12:06 5 8 mph 1009mb 40f 45f
12:00 7 9 mph 1009mb 40f 45f
Ter 03/21 11:54 6 8 mph 1009.1mb 40f 45f
11:48 8 10 mph - - -
11:42 8 13 mph 1009.2mb 40f 46f
11:36 8 14 mph 1009.3mb 40f 46f
11:30 9 15 mph 1009.4mb 40f 46f
11:24 9 16 mph 1009.5mb 40f 46f
11:18 14 20 mph 1009.5mb 40f 46f
11:12 9 15 mph 1009.5mb 40f 47f
11:06 7 15 mph 1009.6mb 40f 47f
11:00 8 13 mph 1009.6mb 40f 47f
10:54 8 11 mph 1009.7mb 40f 47f
10:48 8 15 mph 1009.7mb 40f 47f
10:42 13 15 mph 1009.7mb 40f 47f
10:36 9 20 mph 1009.6mb 39f 47f
10:30 13 22 mph 1009.6mb 39f 48f
10:24 15 24 mph 1009.5mb 39f 48f
10:18 9 14 mph 1009.5mb 39f 48f
10:12 9 15 mph 1009.4mb 39f 48f
10:06 7 10 mph 1009.4mb 39f 48f
10:00 8 10 mph 1009.3mb 39f 49f
9:54 7 10 mph 1009.2mb 39f 49f
9:48 8 18 mph 1009.1mb - -
9:42 10 14 mph 1009.1mb 39f 50f
9:36 6 7 mph 1009.1mb 39f 49f
9:30 6 8 mph 1009mb 39f 49f
9:24 6 9 mph 1009mb 39f 49f
9:18 5 7 mph 1008.9mb 39f 49f
9:12 3 7 mph 1008.8mb 39f 49f
9:06 6 7 mph 1008.8mb 39f 50f
9:00 6 9 mph 1008.8mb 39f 50f
8:54 6 10 mph 1008.8mb 39f 50f
8:48 5 6 mph 1008.4mb - -
8:42 3 6 mph 1008.4mb 39f 51f
8:36 5 6 mph 1008.3mb 39f 51f
8:30 3 5 mph 1008.2mb 39f 51f
8:24 3 5 mph 1008.2mb 39f 51f
8:18 3 5 mph 1008.1mb 39f 51f
8:12 5 6 mph 1008.1mb 39f 52f
8:06 3 6 mph 1008mb 39f 52f
8:00 5 7 mph 1008.1mb 39f 52f
7:54 6
mph
1008.1mb 39f 52f
7:48 5 7 mph 1008mb - -
7:42 3 5 mph 1008mb 39f 52f
7:36 2 6 mph 1007.9mb 39f 53f
7:30 5 7 mph 1007.8mb 39f 53f
7:24 5 6 mph 1007.8mb 39f 53f
7:18 6 8 mph 1007.8mb - -
7:12 7 9 mph 1007.7mb 39f 54f
7:06 6 8 mph 1007.7mb 39f 54f
7:00 5 8 mph 1007.6mb 39f 54f
6:54 6 8 mph 1007.5mb 39f 54f
6:48 6 13 mph 1007.5mb 39f 54f
6:42 8 11 mph 1007.3mb 39f 55f
6:36 8 10 mph 1007.3mb 39f 55f
6:30 8 13 mph 1007.3mb 39f 55f
6:24 11 15 mph 1007.3mb 39f 55f
6:18 11 16 mph 1007.1mb 39f 55f
6:12 8 13 mph 1007.1mb 39f 56f
6:06 7 14 mph 1007.1mb 39f 56f
6:00 11 15 mph 1007mb 39f 55f
5:54 10 14 mph 1007mb 39f 56f
5:48 9 13 mph 1007mb - -
5:42 6 11 mph 1007mb 39f 56f
5:36 8 13 mph 1007mb 39f 55f
5:30 8 14 mph 1007mb 39f 55f
5:24 8 13 mph 1007mb 39f 56f
5:18 11 15 mph 1007.1mb 39f 56f
5:12 6 9 mph 1007.1mb 39f 55f
5:06 11 15 mph 1007.2mb 39f 55f
5:00 17 21 mph 1007.3mb 39f 56f
4:54 6 11 mph 1007.3mb 39f 56f
4:48 6 9 mph - - -
4:42 9 15 mph 1007.3mb 39f 56f
4:36 10 16 mph 1007.4mb 39f 55f
4:30 10 16 mph 1007.4mb 39f 56f
4:24 8 11 mph 1007.4mb 39f 56f
4:18 8 15 mph 1007.4mb 39f 56f
4:12 9 17 mph 1007.4mb 39f 56f
4:06 7 18 mph 1007.3mb 39f 56f
4:00 11 17 mph 1007.6mb 39f 55f
3:54 7 14 mph 1007.6mb 39f 56f
3:48 10 16 mph - - -
3:42 13 16 mph 1007.8mb 39f 55f
3:36 8 16 mph 1007.8mb 39f 55f
3:30 10 14 mph 1007.9mb 39f 55f
3:24 9 13 mph 1008mb 39f 55f
3:18 5 13 mph 1008mb 39f 55f
3:12 8 13 mph 1008mb 39f 55f
3:06 6 14 mph 1008mb 39f 55f
3:00 8 11 mph 1008mb 39f 55f
2:54 8 13 mph 1008mb 39f 55f
2:48 8 11 mph 1008.1mb 39f 55f
2:42 6 10 mph 1008.1mb 39f 55f
2:36 9 11 mph 1008.2mb 39f 53f
2:30 9 15 mph 1008.5mb 39f 53f
2:24 9 11 mph 1008.5mb 39f 51f
2:18 7 9 mph 1008.8mb 39f 50f
2:12 8 13 mph 1008.9mb 39f 50f
2:06 11 16 mph 1008.9mb 39f 49f
2:00 9 13 mph 1009mb 39f 49f
1:54 10 18 mph 1009.1mb 39f 49f
1:48 11 17 mph 1009.1mb 39f 49f
1:42 17 20 mph 1009.2mb 39f 49f
1:36 14 18 mph 1009.2mb 39f 48f